Weather History for Calgary Springbank, AB

Change the Weather History Date:

Monday, November 18, 2013

  Actual Average Record
Temperature  
Mean Temperature 4 °F -  
Max Temperature 14 °F 30 °F 51 °F (2005)
Min Temperature -6 °F 10 °F -13 °F (1996)
Degree Days  
Heating Degree Days 61    
Moisture  
Dew Point 2 °F    
Average Humidity 78    
Maximum Humidity 85    
Minimum Humidity 59    
Precipitation  
Precipitation 0.01 in - - ()
Sea Level Pressure  
Sea Level Pressure 29.95 in    
Wind  
Wind Speed 6 mph ()    
Max Wind Speed 10 mph    
Max Gust Speed -    
Visibility 14.7 miles    
Events Snow    
Averages and records for this station are not official NWS values.
T = Trace of Precipitation, MM = Missing Value Source: Averaged Metar Reports

Daily Weather History Graph

Daily Weather History Graph

Search for Another Location

Airport:

Trip Planner

Search our weather history database for the weather conditions in past years. The results will help you decide how hot, cold, wet, or windy it might be!

Date:

Astronomy

Nov. 18, 2013 Rise Set
Actual Time 7:59 AM MST 4:45 PM MST
Civil Twilight 7:22 AM MST 5:22 PM MST
Nautical Twilight 6:42 AM MST 6:02 PM MST
Astronomical Twilight 6:02 AM MST 6:42 PM MST
Moon 5:48 PM MST (11/18) 8:53 AM MST (11/18)
Length of Visible Light 9h 59m
Length of Day
8h 45m
Full, 99% of the Moon is Illuminated
Nov 18
Full
Nov 25
Last Quarter
Dec 2
New
Dec 9
First Quarter
Dec 17
Full

Hourly Weather History & Observations

Time (MST) Temp. Windchill Dew Point Humidity Pressure Visibility Wind Dir Wind Speed Gust Speed Precip Events Conditions
5:00 AM 10 °F - 6 °F 77% 29.90 in 15 mi North 9.2 mph - -   Clear
5:00 AM 10.4 °F -1.5 °F 6.8 °F 85% 29.90 in 15.0 mi NNW 8.1 mph - N/A   Overcast
6:00 AM 12.2 °F 0.7 °F 6.8 °F 79% 29.93 in 15.0 mi North 8.1 mph - N/A   Overcast
7:00 AM 10.4 °F -1.5 °F 5.0 °F 79% 29.96 in 15.0 mi North 8.1 mph - N/A   Overcast
8:00 AM 8.6 °F -4.7 °F 3.2 °F 79% 29.99 in 25.0 mi North 9.2 mph - N/A   Mostly Cloudy
9:00 AM 8.6 °F 0.1 °F 3.2 °F 79% 30.02 in 30.0 mi NNW 4.6 mph - N/A   Mostly Cloudy
10:00 AM 8.6 °F 2.0 °F 3.2 °F 79% 30.02 in 30.0 mi North 3.5 mph - N/A   Mostly Cloudy
11:00 AM 11 °F - 3 °F 59% 29.99 in 28 mi WSW 1.2 mph - -   Partly Cloudy
11:00 AM 10.4 °F - 3.2 °F 73% 29.99 in 30.0 mi Calm Calm - N/A   Scattered Clouds
12:00 PM 12.2 °F - 3.2 °F 67% 29.96 in 30.0 mi Calm Calm - N/A   Mostly Cloudy
1:00 PM 14.0 °F 6.5 °F 5.0 °F 67% 29.93 in 30.0 mi ESE 4.6 mph - N/A   Scattered Clouds
2:00 PM 14.0 °F 2.9 °F 5.0 °F 67% 29.92 in 30.0 mi East 8.1 mph - N/A   Scattered Clouds
3:00 PM 12.2 °F 2.9 °F 5.0 °F 73% 29.91 in 30.0 mi East 5.8 mph - N/A   Scattered Clouds
4:00 PM 8.6 °F 2.0 °F 3.2 °F 79% 29.91 in 30.0 mi East 3.5 mph - N/A   Scattered Clouds
5:00 PM 3 °F - -1 °F 74% 29.94 in 19 mi ENE 6.9 mph - -   Partly Cloudy
5:00 PM 3.2 °F -9.1 °F -0.4 °F 85% 29.94 in 20.0 mi East 6.9 mph - N/A   Scattered Clouds
6:00 PM -0.4 °F -10.4 °F -5.8 °F 78% 29.94 in 15.0 mi NW 4.6 mph - N/A   Scattered Clouds
7:00 PM -2.2 °F -14.2 °F -5.8 °F 85% 29.95 in 15.0 mi North 5.8 mph - N/A   Partly Cloudy
7:29 PM -2.2 °F -12.5 °F -5.8 °F 85% 29.95 in 15.0 mi NNW 4.6 mph - N/A   Scattered Clouds
8:00 PM 1.4 °F -9.9 °F -2.2 °F 85% 29.94 in 15.0 mi North 5.8 mph - N/A   Scattered Clouds
9:00 PM 5.0 °F -9.1 °F 1.4 °F 85% 29.93 in 12.0 mi North 9.2 mph - N/A   Overcast
9:58 PM 5.0 °F -8.1 °F 1.4 °F 85% 29.92 in 10.0 mi North 8.1 mph - N/A Snow Light Snow
10:00 PM 5.0 °F -10.0 °F 1.4 °F 85% 29.91 in 10.0 mi North 10.4 mph - N/A Snow Light Snow